[[{"header":{"parameterUnit":"m.s-1","parameterCategory":1,"la1":30.2991,"la2":30.254,"lo1":-89.0895,"lo2":-89.0444,"dy":0.0017,"dx":0.0017,"nx":28,"ny":28,"refTime":"2025-01-30T09:00:00:Z","depth":0,"parameterNumber":2,"parameterNumberName":"U-component_of_WINDS"},"data":[0,0,0,0,0,0,0,0,0,0,0,0,0,0,0,0,0,0,0,0,0,0,0,0,0,0,0,0,0,0,0,0,0,0,0,0,0,0,0,0,0,0,0,0,0,0,0,0,0,0,0,0,0,0,0,0,0,0,-3.4655,-3.4656,0,-3.47,-3.4701,-3.4701,-3.4646,-3.4644,-3.4642,-3.464,-3.4687,-3.469,-3.4693,0,0,0,0,0,0,0,0,0,0,0,0,0,-3.4522,-3.4524,-3.4655,-3.4656,-3.4656,-3.47,-3.4701,-3.4702,-3.4647,-3.4644,-3.4642,-3.4639,-3.4686,-3.469,-3.4693,0,0,0,0,0,0,0,0,0,0,0,0,0,-3.4575,-3.4525,-3.4655,-3.4634,-3.4633,-3.47,-3.4701,-3.4702,-3.4647,-3.4644,-3.4641,-3.4638,-3.4685,-3.4689,-3.4694,-3.4784,0,0,-3.4708,-3.471,0,0,0,0,0,0,0,0,-3.4572,-3.458,-3.4637,-3.4636,-3.4634,-3.4665,-3.4671,-3.4729,-3.4648,-3.4642,-3.464,-3.4637,-3.4682,-3.4687,-3.4702,-3.4786,-3.4788,-3.4709,-3.4712,-3.4714,-3.4715,0,0,0,0,0,0,0,-3.4568,-3.4577,-3.4673,-3.4638,-3.4636,-3.4623,-3.4627,-3.4682,-3.4678,-3.4642,-3.4638,-3.4644,-3.4681,-3.4697,-3.4703,-3.4789,-3.4709,-3.4713,-3.4716,-3.4717,-3.4949,-3.4953,0,0,0,0,0,0,-3.4567,-3.4575,-3.4672,-3.4674,-3.4595,-3.4628,-3.4632,-3.4658,-3.4678,-3.4678,-3.4647,-3.4641,-3.4691,-3.4697,-3.4704,-3.481,-3.4714,-3.4718,-3.4721,-3.4946,-3.495,-3.4954,0,0,0,0,0,0,-3.4564,-3.4576,-3.467,-3.4624,-3.4634,-3.4633,-3.4662,-3.466,-3.4677,-3.4681,-3.468,-3.4664,-3.4689,-3.4697,-3.4764,-3.4811,-3.472,-3.4724,-3.4942,-3.4947,-3.4952,-3.5024,0,0,0,0,0,0,-3.4561,-3.4575,-3.4609,-3.4625,-3.4637,-3.4729,-3.4665,-3.4664,-3.4685,-3.4679,-3.4698,-3.4698,-3.4687,-3.4758,-3.4769,-3.4816,-3.4728,-3.4938,-3.4944,-3.495,-3.5017,-3.503,-3.5042,0,0,0,0,0,-3.4556,-3.4628,-3.4611,-3.4623,-3.468,-3.4732,-3.4739,-3.4725,-3.4689,-3.4723,-3.4726,-3.4697,-3.4805,-3.4765,-3.4777,-3.4826,-3.4935,-3.4943,-3.495,-3.5012,-3.5028,-3.5042,0,0,0,0,0,0,-3.4618,-3.463,-3.4611,-3.469,-3.4711,-3.4723,-3.4765,-3.4743,-3.4774,-3.4767,-3.4748,-3.4753,-3.4824,-3.4832,-3.4788,-3.4915,-3.4864,-3.4874,-3.4906,-3.4922,-3.4934,-3.493,-3.4732,0,0,0,0,0,-3.4641,-3.4683,-3.4691,-3.476,-3.4771,-3.4767,-3.4789,-3.4777,-3.4797,-3.4805,-3.4813,-3.4834,-3.4872,-3.4898,-3.4933,-3.5019,-3.5022,-3.5059,-3.5071,-3.5081,-3.509,-3.5135,-3.5151,-3.4978,-3.4978,-3.4978,0,0,-3.4689,-3.47,-3.4727,-3.4772,-3.4787,-3.483,-3.4774,-3.4823,-3.4855,-3.4813,-3.4876,-3.4883,-3.4905,-3.4981,-3.5016,-3.499,-3.5138,-3.5091,-3.5099,-3.5102,-3.5144,-3.516,-3.5175,-3.4983,-3.4983,-3.4982,0,0,-3.4797,-3.4811,-3.4869,-3.4885,-3.4907,-3.4904,-3.4919,-3.4934,-3.4937,-3.5,-3.497,-3.5008,-3.5075,-3.5092,-3.5109,-3.5225,-3.5199,-3.5238,-3.5302,-3.5346,-3.536,-3.5371,-3.5412,-3.5427,-3.5247,-3.5247,-3.5247,0,-3.4853,-3.4917,-3.4902,-3.4953,-3.4973,-3.4938,-3.4997,-3.5013,-3.5046,-3.5061,-3.5032,-3.5115,-3.5128,-3.5207,-3.5236,-3.5252,-3.5267,-3.5234,-3.5359,-3.5371,-3.5382,-3.542,-3.5435,-3.5251,-3.5251,-3.525,-3.525,0,-3.4985,-3.503,-3.5075,-3.5107,-3.5133,-3.5188,-3.5181,-3.5209,-3.5195,-3.5195,-3.526,-3.5274,-3.5312,-3.533,-3.5317,-3.5408,-3.5392,-3.5362,-3.531,-3.5403,-3.5438,-3.5453,-3.5257,-3.5256,-3.5255,-3.5254,0,0,-3.5132,-3.5156,-3.5173,-3.5187,-3.521,-3.5244,-3.5298,-3.5334,-3.5358,-3.5383,-3.5427,-3.5485,-3.5457,-3.5477,-3.5465,-3.5505,-3.5595,-3.5469,-3.547,-3.5491,-3.5695,-3.5716,-3.5733,-3.5578,-3.5581,-3.5583,-3.5692,0,-3.5239,-3.5331,-3.5319,-3.5407,-3.5448,-3.5416,-3.5463,-3.5482,-3.5484,-3.5519,-3.5521,-3.5562,-3.5523,-3.5535,-3.5572,-3.5576,-3.5635,-3.5568,-3.5618,-3.562,-3.5611,-3.5752,-3.5774,-3.5876,-3.5706,-3.5709,-3.571,0,-3.5377,-3.5406,-3.5498,-3.5514,-3.5531,-3.5573,-3.5606,-3.564,-3.5662,-3.566,-3.5683,-3.5665,-3.5718,-3.5668,-3.5741,-3.5695,-3.5716,-3.5721,-3.5725,-3.5727,-3.5669,-3.5756,-3.5908,-3.5923,-3.5732,-3.5731,-3.5729,0,-3.5473,-3.5536,-3.5598,-3.5612,-3.5633,-3.5663,-3.5673,-3.5692,-3.5715,-3.5744,-3.5758,-3.5794,-3.5812,-3.584,-3.5832,-3.5796,-3.5907,-3.5856,-3.5907,-3.5907,-3.593,-3.5928,-3.6085,-3.5946,-3.5946,-3.5946,-3.5946,0,-3.5593,-3.565,-3.5642,-3.568,-3.5743,-3.573,-3.5793,-3.5799,-3.5816,-3.5855,-3.5831,-3.5868,-3.5856,-3.5893,-3.5888,-3.5949,-3.5958,-3.5958,-3.5955,-3.5959,-3.5959,-3.597,-3.5962,-3.595,-3.5949,-3.5948,-3.5948,0,-3.571,-3.5707,-3.5773,-3.5788,-3.5793,-3.5839,-3.5851,-3.5888,-3.5888,-3.5938,-3.5949,-3.595,-3.5993,-3.5988,-3.6036,-3.6032,-3.6107,-3.6097,-3.6099,-3.6096,-3.6147,-3.6142,-3.6316,-3.6337,-3.6187,-3.6188,-3.6189,0,-3.5785,-3.5828,-3.5848,-3.5873,-3.5885,-3.5925,-3.5948,-3.5937,-3.5962,-3.599,-3.6023,-3.6064,-3.6095,-3.6164,-3.6169,-3.6205,-3.6194,-3.6253,-3.62,-3.6202,-3.6193,-3.619,-3.6194,-3.6263,-3.6264,-3.6266,-3.6267,0,-3.592,-3.5916,-3.595,-3.5985,-3.6013,-3.604,-3.6064,-3.6085,-3.6077,-3.6107,-3.6149,-3.6174,-3.6222,-3.6262,-3.6297,-3.6307,-3.6286,-3.6284,-3.6298,-3.6301,-3.6299,-3.6299,-3.6126,-3.628,-3.6278,-3.6277,-3.6277,-3.6276,-3.6017,-3.6053,-3.6073,-3.6112,-3.6129,-3.6152,-3.6187,-3.6192,-3.6228,-3.6266,-3.6258,-3.6306,-3.6327,-3.6371,-3.6385,-3.6423,-3.6401,-3.6421,-3.6426,-3.643,-3.6435,-3.6296,-3.6429,-3.6429,-3.6429,-3.6428,-3.6428,0,-3.6148,-3.6159,-3.6196,-3.623,-3.6261,-3.6239,-3.6265,-3.6292,-3.6334,-3.6355,-3.6387,-3.6436,-3.6475,-3.6484,-3.6521,-3.6549,-3.654,-3.6559,-3.6556,-3.6558,-3.6453,-3.6437,-3.6566,-3.6566,-3.6566,-3.6565,-3.6565,-3.6565,-3.622,-3.628,-3.6279,-3.6348,-3.6359,-3.6406,-3.6422,-3.6443,-3.646,-3.6516,-3.6548,-3.6554,-3.657,-3.6608,-3.6643,-3.6644,-3.6658,-3.6681,-3.6678,-3.658,-3.6566,-3.6553,-3.6537,-3.6685,-3.6685,-3.678,-3.6781,-3.6782]},{"header":{"parameterUnit":"m.s-1","parameterCategory":1,"la1":30.2991,"la2":30.254,"lo1":-89.0895,"lo2":-89.0444,"dy":0.0017,"dx":0.0017,"nx":28,"ny":28,"refTime":"2025-01-30T09:00:00:Z","depth":0,"parameterNumber":3,"parameterNumberName":"V-component_of_WINDS"},"data":[0,0,0,0,0,0,0,0,0,0,0,0,0,0,0,0,0,0,0,0,0,0,0,0,0,0,0,0,0,0,0,0,0,0,0,0,0,0,0,0,0,0,0,0,0,0,0,0,0,0,0,0,0,0,0,0,0,0,0.9797,0.9797,0,0.9793,0.9793,0.9793,0.976,0.9759,0.9759,0.9758,0.9755,0.9755,0.9756,0,0,0,0,0,0,0,0,0,0,0,0,0,0.9778,0.9779,0.9797,0.9797,0.9796,0.9793,0.9793,0.9793,0.976,0.9759,0.9758,0.9757,0.9755,0.9755,0.9756,0,0,0,0,0,0,0,0,0,0,0,0,0,0.9782,0.9779,0.9797,0.978,0.9778,0.9793,0.9793,0.9793,0.9761,0.9759,0.9758,0.9757,0.9754,0.9755,0.9756,0.9787,0,0,0.9759,0.976,0,0,0,0,0,0,0,0,0.9781,0.9782,0.9782,0.9781,0.9779,0.9776,0.9785,0.9791,0.9761,0.9767,0.9758,0.9756,0.9763,0.9763,0.9765,0.9787,0.9787,0.976,0.976,0.9761,0.9761,0,0,0,0,0,0,0,0.9781,0.9782,0.9795,0.9782,0.9781,0.9773,0.9773,0.9786,0.9772,0.9767,0.9764,0.9764,0.9762,0.9764,0.9765,0.9787,0.9759,0.976,0.9761,0.9761,0.9836,0.9838,0,0,0,0,0,0,0.9783,0.9782,0.9795,0.9795,0.9777,0.9775,0.9774,0.9778,0.9772,0.977,0.9765,0.9763,0.9763,0.9764,0.9765,0.9802,0.9761,0.9762,0.9762,0.9835,0.9837,0.9838,0,0,0,0,0,0,0.9783,0.9785,0.9795,0.9788,0.9789,0.9776,0.9782,0.9779,0.9781,0.9771,0.9768,0.977,0.9762,0.9763,0.9782,0.9802,0.9762,0.9763,0.9833,0.9836,0.9838,0.9877,0,0,0,0,0,0,0.9782,0.9785,0.9795,0.9788,0.9789,0.9813,0.9783,0.9779,0.9783,0.9779,0.9775,0.9773,0.9761,0.9781,0.9783,0.9802,0.9764,0.9832,0.9834,0.9837,0.9874,0.988,0.9885,0,0,0,0,0,0.9782,0.9806,0.9796,0.9798,0.9802,0.9814,0.9814,0.98,0.9784,0.9796,0.979,0.9773,0.9799,0.9783,0.9786,0.9805,0.983,0.9834,0.9837,0.9871,0.9879,0.9885,0,0,0,0,0,0,0.9815,0.9805,0.9794,0.9816,0.9816,0.9808,0.9822,0.9808,0.9813,0.981,0.9792,0.9792,0.9814,0.9811,0.9794,0.9836,0.9812,0.9816,0.9837,0.9844,0.985,0.9851,0.9765,0,0,0,0,0,0.9825,0.9835,0.9825,0.9846,0.9847,0.9835,0.9839,0.9828,0.9828,0.9828,0.9822,0.9823,0.9832,0.9837,0.9844,0.9873,0.9873,0.9888,0.9893,0.9898,0.9902,0.992,0.9927,0.9849,0.9849,0.9848,0,0,0.9846,0.9842,0.9848,0.9853,0.9851,0.9863,0.9835,0.9847,0.9856,0.9829,0.9848,0.9844,0.9844,0.9869,0.9879,0.9867,0.9924,0.9902,0.9906,0.9907,0.9924,0.9931,0.9938,0.9851,0.985,0.985,0,0,0.989,0.9887,0.9905,0.9905,0.9904,0.9896,0.99,0.9895,0.9892,0.991,0.9891,0.9901,0.9916,0.9917,0.9919,0.9967,0.9952,0.9969,1.0,1.0017,1.0024,1.0029,1.0048,1.0055,0.9973,0.9973,0.9973,0,0.9917,0.9932,0.9916,0.9931,0.9935,0.9911,0.9931,0.9931,0.9933,0.9936,0.9922,0.9942,0.9939,0.9965,0.9977,0.9979,0.9985,0.997,1.0024,1.0029,1.0034,1.0052,1.0059,0.9975,0.9975,0.9975,0.9975,0,0.9966,0.9977,0.9992,0.9995,1.0,1.0017,1.0005,1.0012,1.0001,0.9996,1.0016,1.0013,1.002,1.0025,1.0014,1.005,1.0043,1.0027,1.0002,1.0044,1.0061,1.0068,0.9979,0.9978,0.9977,0.9976,0,0,1.0031,1.0026,1.0032,1.0034,1.0031,1.0041,1.0057,1.0065,1.0072,1.0074,1.0089,1.0103,1.0089,1.0092,1.0081,1.0096,1.0137,1.0078,1.0078,1.0091,1.018,1.0194,1.0202,1.0127,1.0128,1.0129,1.018,0,1.0075,1.0104,1.0091,1.0121,1.0133,1.0112,1.0127,1.0128,1.0123,1.0133,1.0128,1.0139,1.0118,1.012,1.0134,1.0129,1.0155,1.0125,1.0143,1.0143,1.0145,1.021,1.0224,1.0273,1.0187,1.0188,1.0188,0,1.0131,1.0136,1.0168,1.0166,1.0171,1.0184,1.0191,1.02,1.0202,1.0198,1.0202,1.0189,1.0207,1.0182,1.0207,1.0187,1.0194,1.0193,1.0195,1.0197,1.017,1.0217,1.0288,1.0296,1.0198,1.0198,1.0197,0,1.0179,1.0193,1.0215,1.0217,1.0214,1.0225,1.0225,1.0225,1.0231,1.0237,1.0242,1.0249,1.0255,1.0262,1.0252,1.0234,1.028,1.0253,1.0278,1.0279,1.029,1.029,1.0366,1.0291,1.0291,1.0291,1.029,0,1.0231,1.0252,1.0237,1.025,1.0274,1.0259,1.0283,1.028,1.0281,1.0295,1.0276,1.029,1.0275,1.0287,1.0279,1.0303,1.0305,1.0303,1.0301,1.0306,1.0307,1.0312,1.0309,1.0293,1.0292,1.0292,1.0291,0,1.0289,1.0279,1.0302,1.0298,1.0298,1.0315,1.0313,1.0326,1.032,1.0338,1.0341,1.0333,1.0346,1.0337,1.035,1.0345,1.0377,1.0369,1.0377,1.0376,1.0403,1.0401,1.0486,1.0498,1.0413,1.0414,1.0414,0,1.0324,1.0339,1.0338,1.0346,1.0347,1.0359,1.0366,1.0353,1.036,1.0365,1.0378,1.039,1.04,1.0423,1.0418,1.0429,1.0423,1.0452,1.0425,1.043,1.0427,1.0427,1.043,1.0458,1.0459,1.046,1.0461,0,1.0388,1.0383,1.0393,1.0402,1.0411,1.0417,1.0422,1.043,1.0416,1.0426,1.0441,1.0448,1.0463,1.0476,1.0486,1.0486,1.0472,1.0469,1.0476,1.0482,1.0487,1.0488,1.0395,1.0468,1.0467,1.0466,1.0466,1.0466,1.0437,1.0451,1.0453,1.0466,1.0468,1.0474,1.0487,1.0483,1.0495,1.0506,1.0497,1.0515,1.0518,1.053,1.0532,1.0547,1.0535,1.0544,1.0547,1.055,1.0555,1.0483,1.0548,1.0548,1.0547,1.0547,1.0547,0,1.0503,1.0503,1.0515,1.0523,1.0534,1.0519,1.0524,1.0534,1.055,1.0554,1.0564,1.0582,1.0595,1.0592,1.0605,1.0617,1.0611,1.0621,1.0621,1.0622,1.0563,1.0558,1.0626,1.0626,1.0626,1.0626,1.0626,1.0626,1.0538,1.0563,1.0558,1.0584,1.0584,1.0602,1.0607,1.0613,1.0616,1.0637,1.0648,1.0646,1.0648,1.066,1.0673,1.0671,1.0678,1.0691,1.0688,1.0633,1.0626,1.0618,1.0613,1.0692,1.0692,1.0745,1.0746,1.0746]}]]